SCP
0 0 0 0 0 0 0 0 0 0 0 0 0 0 0 0 0 0 0 0 0 0 0 0 0 0 0 0 0 0 0 0 0 0 0 0 0 0 0 0 0 0 0 0
0 0 0 0 0 0 0 0 0 0 0 0 0 0 0 0 0 0 0 0 0 0 0 0 0 0 0 0 0 0 0 0 0 0 0 0 0 0 0 0 0 0 0 0
0 0 0 0 0 0 0 0 0 0 0 0 0 0 0 0 0 0 0 0 0 0 0 0 0 0 0 0 0 0 0 0 0 0 0 0 0 0 0 0 0 0 0 0
0 0 0 0 0 0 0 0 0 0 0 0 0 0 0 0 0 0 0 0 0 0 0 0 0 0 0 0 0 0 0 0 0 0 0 0 0 0 0 0 0 0 0 0
0 0 0 0 0 0 0 0 0 0 0 0 0 0 0 0 0 0 0 0 0 0 0 0 0 0 0 0 0 0 0 0 0 0 0 0 0 0 0 0 0 0 0 0
0 0 0 0 0 0 0 0 0 0 0 0 0 0 0 0 0 0 0 0 0 0 0 0 0 0 0 0 0 0 0 0 0 0 0 0 0 0 0 0 0 0 0 0
0 0 0 0 0 0 0 0 0 0 0 0 0 0 0 0 0 0 0 0 0 0 0 0 0 0 0 0 0 0 0 0 0 0 0 0 0 0 0 0 0 0 0 0
0 0 0 0 0 0 0 0 0 0 0 0 0 0 0 0 0 0 0 0 0 0 0 0 0 0 0 0 0 0 0 0 0 0 0 0 0 0 0 0 0 0 0 0
0 0 0 0 0 0 0 0 0 0 0 0 0 0 0 0 0 0 0 0 0 0 0 0 0 0 0 0 0 0 0 0 0 0 0 0 0 0 0 0 0 0 0 0
0 0 0 0 0 0 0 0 0 0 0 0 0 0 0 0 0 0 0 0 0 0 0 0 0 0 0 0 0 0 0 0 0 0 0 0 0 0 0 0 0 0 0 0
0 0 0 0 0 0 0 0 0 0 0 0 0 0 0 0 0 0 0 0 0 0 0 0 0 0 0 0 0 0 0 0 0 0 0 0 0 0 0 0 0 0 0 0
0 0 0 0 0 0 0 0 0 0 0 0 0 0 0 0 0 0 0 0 0 0 0 0 0 0 0 0 0 0 0 0 0 0 0 0 0 0 0 0 0 0 0 0
0 0 0 0 0 0 0 0 0 0 0 0 0 0 0 0 0 0 0 0 0 0 0 0 0 0 0 0 0 0 0 0 0 0 0 0 0 0 0 0 0 0 0 0
0 0 0 0 0 0 0 0 0 0 0 0 0 0 0 0 0 0 0 0 0 0 0 0 0 0 0 0 0 0 0 0 0 0 0 0 0 0 0 0 0 0 0 0
0 0 0 0 0 0 0 0 0 0 0 0 0 0 0 0 0 0 0 0 0 0 0 0 0 0 0 0 0 0 0 0 0 0 0 0 0 0 0 0 0 0 0 0
0 0 0 0 0 0 0 0 0 0 0 0 0 0 0 0 0 0 0 0 0 0 0 0 0 0 0 0 0 0 0 0 0 0 0 0 0 0 0 0 0 0 0 0
0 0 0 0 0 0 0 0 0 0 0 0 0 0 0 0 0 0 0 0 0 0 0 0 0 0 0 0 0 0 0 0 0 0 0 0 0 0 0 0 0 0 0 0
0 0 0 0 0 0 0 0 0 0 0 0 0 0 0 0 0 0 0 0 0 0 0 0 0 0 0 0 0 0 0 0 0 0 0 0 0 0 0 0 0 0 0 0
0 0 0 0 0 0 0 0 0 0 0 0 0 0 0 0 0 0 0 0 0 0 0 0 0 0 0 0 0 0 0 0 0 0 0 0 0 0 0 0 0 0 0 0
0 0 0 0 0 0 0 0 0 0 0 0 0 0 0 0 0 0 0 0 0 0 0 0 0 0 0 0 0 0 0 0 0 0 0 0 0 0 0 0 0 0 0 0
0 0 0 0 0 0 0 0 0 0 0 0 0 0 0 0 0 0 0 0 0 0 0 0 0 0 0 0 0 0 0 0 0 0 0 0 0 0 0 0 0 0 0 0
0 0 0 0 0 0 0 0 0 0 0 0 0 0 0 0 0 0 0 0 0 0 0 0 0 0 0 0 0 0 0 0 0 0 0 0 0 0 0 0 0 0 0 0
0 0 0 0 0 0 0 0 0 0 0 0 0 0 0 0 0 0 0 0 0 0 0 0 0 0 0 0 0 0 0 0 0 0 0 0 0 0 0 0 0 0 0 0
0 0 0 0 0 0 0 0 0 0 0 0 0 0 0 0 0 0 0 0 0 0 0 0 0 0 0 0 0 0 0 0 0 0 0 0 0 0 0 0 0 0 0 0
0 0 0 0 0 0 0 0 0 0 0 0 0 0 0 0 0 0 0 0 0 0 0 0 0 0 0 0 0 0 0 0 0 0 0 0 0 0 0 0 0 0 0 0
0 0 0 0 0 0 0 0 0 0 0 0 0 0 0 0 0 0 0 0 0 0 0 0 0 0 0 0 0 0 0 0 0 0 0 0 0 0 0 0 0 0 0 -0
0 0 0 0 0 0 0 0 0 0 0 0 0 0 0 0 0 0 0 0 0 0 0 0 0 0 0 0 0 0 0 0 0 0 0 0 0 0 0 0 0 0 -0 -0
Wind_Speed
3 4 7 8 10 12 10 10 10 9 8 4 1 2 2 1 3 5 7 7 7 7 6 5 5 4 4 4 4 4 4 4 4 5 5 6 6 7 7 7 10 9 11 11
3 3 3 2 6 12 9 7 6 4 6 3 1 2 1 2 3 5 7 8 8 7 7 6 5 4 3 3 3 3 3 3 4 5 6 6 7 7 8 9 9 10 10 12
3 1 3 5 8 11 7 6 9 10 7 3 2 3 2 2 1 4 5 7 8 8 7 6 5 4 3 2 1 1 2 4 5 5 6 7 8 8 9 9 10 10 11 11
5 4 6 6 1 8 7 2 4 5 5 4 3 2 2 2 2 3 4 7 8 7 6 5 4 3 3 2 2 3 4 5 5 5 6 7 7 8 8 8 9 10 11 12
5 5 5 4 4 8 8 3 2 6 5 4 3 3 3 2 2 2 5 7 7 6 6 5 4 3 3 2 2 3 4 5 5 5 6 7 8 8 8 8 10 10 11 12
5 5 8 4 3 5 8 3 2 5 6 4 4 2 3 2 1 3 5 6 6 6 6 5 4 3 3 2 3 4 5 5 6 6 6 7 8 8 7 8 9 11 12 11
4 4 7 2 2 5 5 6 6 6 6 5 5 5 2 3 3 4 5 6 6 6 5 4 3 3 2 2 3 4 5 5 6 6 7 8 7 6 8 9 10 10 13 11
6 4 8 2 5 6 5 5 6 5 4 4 4 2 4 5 5 6 6 5 6 5 4 3 3 2 1 3 4 4 5 6 6 7 7 8 7 8 8 8 11 11 12 12
7 5 1 0 4 4 7 6 5 5 4 3 2 1 3 5 6 6 6 5 4 5 4 3 2 1 2 4 4 5 5 6 7 8 7 7 8 9 8 7 8 10 10 11
2 2 1 3 5 4 4 5 4 3 2 2 2 1 2 4 5 5 5 4 4 5 4 2 1 1 3 4 5 5 6 7 7 7 8 6 5 6 7 7 9 10 10 11
2 3 3 1 3 4 4 5 5 4 3 2 1 2 3 4 6 6 5 4 4 4 3 2 2 3 4 4 4 5 7 7 7 7 7 7 6 5 8 7 10 14 10 10
6 7 7 6 3 4 5 4 4 3 2 1 1 2 3 4 4 5 5 5 4 3 1 2 3 4 5 5 5 6 7 7 5 6 6 7 8 9 13 15 21 23 22 19
2 3 4 5 5 4 6 5 4 3 2 1 0 1 3 3 3 4 5 4 3 2 1 3 4 6 6 6 6 6 7 7 6 6 7 8 8 10 12 13 17 20 21 23
4 6 5 4 4 4 5 4 3 2 1 1 1 2 3 4 4 5 4 3 2 1 2 3 5 7 7 6 6 6 6 9 9 7 7 8 8 9 10 12 13 10 13 20
5 5 6 7 6 4 3 2 1 1 2 1 0 1 3 4 4 4 3 2 1 1 3 4 6 7 6 5 5 6 7 6 7 7 7 8 8 9 10 12 12 12 10 12
7 7 6 6 5 5 3 3 3 3 3 2 2 2 2 3 3 3 2 1 1 3 4 5 6 6 5 5 6 6 6 14 13 8 7 8 8 10 10 11 11 11 12 12
8 6 5 4 4 4 4 4 4 4 3 4 4 3 3 4 3 2 2 2 3 5 5 6 6 6 6 6 6 6 6 9 15 10 7 9 9 10 10 10 10 11 11 14
6 6 6 5 4 2 2 2 4 5 5 5 4 5 5 5 4 3 3 2 3 4 5 5 5 6 6 6 6 6 6 6 7 8 8 9 10 9 9 10 11 13 11 12
5 6 6 4 3 3 3 3 4 4 4 4 5 6 5 4 3 3 2 2 4 5 5 5 11 8 6 8 11 6 7 8 9 9 9 14 12 8 9 10 11 11 11 11
5 4 3 2 2 3 3 3 3 3 3 4 5 5 4 4 4 3 2 3 4 5 5 7 7 6 6 8 13 6 7 8 8 8 9 8 8 8 9 10 11 11 11 11
4 3 3 3 3 4 4 3 3 4 4 5 5 5 4 3 3 2 2 4 5 5 6 10 6 5 6 9 13 6 6 7 8 8 8 8 9 9 10 10 11 12 12 11
4 4 4 4 4 4 4 4 4 4 5 5 4 4 3 2 2 2 4 4 4 8 6 4 5 10 14 15 6 5 6 8 8 7 7 7 8 9 10 10 10 11 10 10
3 3 4 4 4 3 2 2 3 3 4 4 4 4 4 2 2 2 3 3 3 10 8 5 11 19 21 10 5 6 8 8 8 8 7 7 7 8 9 10 9 9 9 10
3 3 2 2 2 1 2 2 2 2 3 3 3 3 3 1 1 2 3 8 12 14 6 11 18 20 19 5 5 7 7 8 8 7 9 8 8 8 8 9 9 9 9 10
1 2 2 2 1 1 2 1 3 3 4 3 4 3 2 1 1 3 3 5 11 13 7 11 18 18 11 7 8 8 7 7 9 9 8 7 8 8 9 9 9 9 9 9
1 1 1 1 1 1 2 3 3 3 3 3 2 2 1 2 3 3 4 5 8 12 8 7 8 11 8 8 8 9 9 10 10 9 9 10 10 10 9 9 10 9 8 8
2 3 3 3 3 3 4 4 4 4 3 2 1 1 2 3 3 4 5 5 6 6 7 7 7 8 8 8 9 9 8 8 9 9 9 9 8 8 8 9 9 8 8 9
Wind_Direction
119 152 154 170 181 179 188 186 185 217 216 235 207 208 211 194 165 159 161 156 151 141 133 125 110 95 80 61 44 45 39 24 3 344 336 331 331 332 332 334 336 329 327 326
80 82 138 174 193 188 198 187 194 187 218 233 214 138 92 79 141 168 173 164 152 143 140 135 129 117 102 81 44 37 27 4 351 345 337 334 333 334 334 333 328 324 322 323
136 126 104 246 207 183 191 190 172 194 210 158 124 120 73 14 260 211 187 165 155 152 148 146 146 141 134 104 39 21 13 1 348 339 334 333 333 333 330 325 321 321 321 321
125 136 215 243 165 156 143 156 170 135 123 131 139 109 32 16 325 279 177 156 151 147 143 141 134 133 129 93 33 14 4 344 333 334 330 324 323 322 318 314 317 318 318 314
134 180 252 260 164 148 133 139 130 126 119 103 90 53 358 13 351 265 170 153 148 144 135 130 131 132 122 72 23 4 340 327 325 324 321 324 322 313 309 313 317 315 311 308
130 167 225 234 160 150 103 159 214 144 136 128 107 92 272 333 71 108 120 123 123 120 124 133 136 131 111 48 2 335 318 312 311 317 319 312 301 296 303 311 309 309 307 305
148 205 255 219 143 125 161 210 163 143 136 138 165 194 212 134 127 124 116 117 122 129 136 143 133 111 80 359 319 304 304 308 315 315 304 291 288 295 305 307 307 306 305 305
150 190 244 159 137 165 170 131 131 142 159 174 194 178 142 150 145 136 128 130 133 134 134 125 110 99 7 298 290 299 309 312 306 298 295 303 300 300 301 303 308 307 307 306
183 198 247 61 143 136 129 135 162 172 186 172 165 153 153 163 165 160 154 150 136 133 129 121 117 142 277 284 304 316 314 304 296 294 288 289 293 301 306 303 302 304 305 306
152 206 114 102 110 120 125 132 143 130 123 133 153 159 174 172 172 164 156 152 137 136 147 171 204 257 276 297 312 311 300 294 293 293 296 290 284 292 299 299 298 300 304 311
166 160 129 166 148 133 111 97 91 82 78 95 143 171 178 180 176 167 160 152 145 147 165 210 287 308 305 304 304 297 290 288 291 289 296 302 295 285 296 283 295 307 310 315
200 191 172 191 160 120 115 98 80 83 89 89 159 205 184 181 172 163 156 143 138 144 176 288 310 307 305 302 296 290 293 292 290 299 301 302 304 304 302 308 312 314 315 316
163 128 121 120 91 88 107 107 96 88 83 83 89 174 171 162 153 142 137 138 148 168 252 299 309 305 300 296 288 280 286 301 301 303 305 305 306 310 313 316 316 316 316 317
128 110 105 125 122 106 117 133 138 142 153 172 186 184 157 141 139 142 148 151 149 175 298 302 297 286 282 281 280 284 292 307 311 301 299 301 303 307 310 314 316 313 313 317
64 91 121 117 117 127 137 146 160 258 270 270 148 154 154 153 159 160 147 128 94 324 290 279 273 274 279 288 301 306 307 301 294 288 292 299 304 306 307 308 308 309 311 316
108 95 110 133 156 171 182 197 223 251 261 270 262 228 185 159 145 141 140 142 225 268 271 269 272 283 303 314 311 302 294 301 308 305 303 306 307 306 307 307 307 309 314 318
143 152 156 156 169 182 197 212 223 241 244 242 236 214 167 147 151 189 227 225 234 255 268 277 289 301 302 294 289 290 288 297 308 311 303 304 304 303 303 306 308 311 312 314
151 153 155 147 154 180 230 241 236 232 226 223 203 174 173 179 197 218 235 249 264 279 279 280 285 288 280 280 283 284 289 293 298 299 300 302 303 303 308 309 310 310 312 315
135 137 140 145 159 182 220 243 243 233 219 187 173 182 188 193 199 214 226 269 300 302 294 291 306 306 292 295 308 295 294 293 295 296 299 304 309 304 304 307 309 310 311 313
134 139 150 166 181 201 230 241 236 227 203 175 169 174 184 195 199 210 234 267 259 255 273 290 291 282 287 294 306 290 285 288 292 297 301 300 302 305 307 308 309 311 311 311
163 175 196 224 246 244 239 233 215 213 199 181 182 190 194 188 181 193 239 273 272 272 282 299 303 296 297 297 301 288 286 291 296 298 301 302 303 304 306 308 309 308 308 309
191 197 210 217 233 252 245 222 209 201 184 182 186 181 178 197 214 233 237 244 270 303 308 288 287 300 305 306 295 287 290 295 299 297 294 294 296 299 300 300 299 301 304 306
202 201 200 205 222 243 260 233 212 194 187 186 185 185 189 195 199 236 282 282 291 305 310 292 302 307 310 312 292 292 297 297 296 295 293 290 288 288 290 293 296 301 302 302
200 187 176 158 148 187 276 273 209 178 165 158 156 148 144 146 270 245 255 301 310 310 306 302 309 311 315 312 298 295 293 293 291 288 290 288 286 289 294 297 299 298 298 299
154 146 134 128 151 222 233 147 119 111 109 95 87 83 86 116 254 288 289 291 303 312 303 306 310 314 314 299 297 296 295 288 289 293 293 296 296 295 295 294 296 299 300 300
147 132 105 112 113 114 114 112 102 97 96 89 72 51 11 328 293 284 282 282 286 304 306 300 299 304 300 297 295 292 291 294 298 300 295 293 292 293 295 298 299 299 298 298
101 92 89 79 63 69 83 90 94 91 88 90 58 340 325 313 304 298 297 294 295 297 297 299 301 299 297 295 293 291 290 292 293 294 293 292 292 294 297 297 296 295 296 295